CAPE
1174 1157 1292 1523 1644 1756 1740 1893 1976 1886 1925 1909 1926 1854 1738 1705 1503 1429 1150 1191 1007 658 561 507 444 252 160 203 445 400 287 416 454 583 626 679 717 721 728 766 808 813 779 647 451 274 249 220 281 526 1041 1304 584 1060 892 896 704 837 857 860 1046 1037
1028 1107 1120 1384 1520 1616 1657 1884 2022 1960 1942 1905 1894 1875 1686 1589 1128 1149 1256 932 738 558 582 474 519 324 288 340 452 453 385 352 498 502 481 579 770 709 736 771 462 624 484 303 52 140 322 288 136 306 479 456 883 955 1074 1017 984 781 737 945 964 1048
879 985 1114 1343 1432 1630 1731 1806 2002 1965 1798 1870 1941 1771 1624 1374 1143 993 923 825 700 760 678 735 851 570 537 707 592 503 420 437 483 583 625 745 430 506 601 513 443 555 263 12 350 432 555 680 889 446 530 1159 998 881 958 1151 1144 1054 903 873 1006 825
806 850 1097 1151 1410 1543 1540 1737 1841 1875 1814 1843 1835 1592 1492 1208 945 941 863 814 820 733 837 1117 1479 1444 1011 610 613 807 685 595 518 441 349 564 352 351 234 306 447 463 552 600 713 650 596 786 906 1058 1122 1012 848 920 1064 1051 964 958 1042 843 902 780
745 1076 1068 1124 1398 1476 1557 1647 1798 1776 1669 1814 1630 1406 1166 1028 847 896 1013 1091 947 905 961 1128 1168 1202 1061 790 689 619 767 681 719 700 402 923 1121 935 1134 1093 1170 1154 1046 972 1037 1072 1122 1076 1142 1052 1111 1188 977 1148 1118 1149 1065 982 1011 1189 1239 860
706 1022 1151 1243 1424 1506 1613 1540 1577 1713 1687 1598 1526 1263 1053 982 786 888 1124 979 1178 934 1097 1210 1307 1337 1331 1240 1176 1115 1096 1233 1354 1449 1286 1373 1417 1431 1321 1199 1216 1171 1190 1171 1201 1236 1262 1192 1121 1122 1123 1147 991 1105 1069 956 1043 1103 1065 1212 1330 613
571 967 1207 1467 1607 1536 1518 1471 1593 1588 1538 1508 1389 1052 949 870 916 901 1202 1264 1370 1351 1263 1409 1388 1480 1558 1489 1428 1464 1557 1701 1805 1666 1809 1611 1603 1619 1383 1380 1394 1308 1269 1217 1164 1231 1256 1282 1461 1055 1062 1015 1080 1059 1249 1087 1068 1022 976 1027 896 509
741 1085 1300 1528 1636 1534 1543 1433 1488 1598 1335 1311 1211 1059 923 893 917 796 1193 1417 1386 1463 1414 1468 1357 1318 1475 1547 1649 1612 1662 1663 1681 1728 1763 1539 1322 1375 1404 1442 1459 1338 1229 1211 1139 1254 1274 1203 1333 1378 1205 1144 1148 1248 1335 1259 1220 1194 1102 1123 982 933
1029 1177 1416 1529 1486 1406 1328 1355 1442 1425 1271 1480 1191 1118 987 909 911 1095 1227 1468 1550 1662 1524 1442 1478 1379 1394 1632 1300 1272 1710 1689 1685 1695 1783 1546 1382 1328 1344 1395 1379 1298 1324 1278 1298 1375 1330 1260 1341 1266 1112 1041 1196 1157 1301 1283 1235 1112 1127 1282 1203 1161
1212 1387 1314 1412 1428 1454 1288 1276 1395 1406 1227 1419 1264 1026 1000 952 1076 1360 1357 1341 1353 1523 1640 1619 1506 1474 1732 1738 1727 1712 1717 1608 1558 1506 1505 1525 1608 1639 1535 1424 1426 1432 1349 1364 1350 1372 1415 1231 1038 1078 1140 1147 1188 1146 1252 1224 1189 1140 1128 1242 1381 1360
888 1504 1276 1370 1374 1301 1237 1326 1332 1302 1326 1427 1218 1034 1071 1109 1283 1398 1405 1602 1526 1603 1548 1342 1590 1840 1893 1817 1695 1570 1578 1490 1407 1517 1584 1590 1763 1797 1598 1461 1488 1460 1379 1390 1368 1276 1207 1114 1092 939 1032 989 1004 1069 1088 1173 1126 1218 1056 1253 1388 1490
1016 1312 1446 1252 1351 1383 1110 1228 1283 1185 1229 1351 1335 1180 1175 1317 1565 1604 1545 1568 1597 1546 1402 1235 1384 1726 1857 1775 1617 1477 1444 1366 1522 1654 1752 1856 1792 1679 1445 1401 1606 1666 1710 1439 1316 1276 1167 1086 1004 917 829 991 974 980 963 1109 1131 1288 1157 1163 1219 1256
911 1230 1433 1176 1425 1202 1113 1152 1194 1212 1234 1326 1296 1208 1296 1316 1764 1506 1443 1294 1229 1195 1183 1475 1355 1476 1772 1777 1523 1405 1478 1481 1677 1804 1890 1888 1741 1538 1457 1483 1499 1494 1372 1356 1224 1223 959 1082 899 938 914 949 950 911 1066 1170 1090 994 1013 1038 1046 908
788 1109 1344 1243 1209 1064 1043 1197 1112 1133 1137 1193 1249 1290 1237 1270 1404 1355 1277 1254 1351 1292 1283 1480 1365 1437 1697 1388 1388 1403 1523 1571 1668 1914 1717 1638 1383 1482 1409 1478 1378 1394 1098 1073 1059 1068 955 959 885 827 971 1047 993 1056 1136 942 851 786 682 458 391 362
849 1071 1337 1038 1034 929 1001 1139 1139 1061 1144 1226 1205 1167 1137 1293 1346 1335 1419 1411 1491 1548 1477 1452 1340 1562 1584 1426 1372 1501 1481 1568 1470 1581 1474 1521 1466 1321 1341 1326 1191 1204 996 906 875 731 775 933 888 850 975 1008 881 953 960 656 322 298 276 303 342 268
841 1066 1124 1108 1111 1121 1000 1081 1242 1100 1140 1126 1094 1076 1126 1222 1098 1112 1167 1238 1313 1329 1340 1346 1260 1152 1512 1417 1346 1464 1469 1424 1438 1324 1336 1436 1353 1227 1124 1001 812 840 904 624 564 657 754 802 823 894 961 829 772 720 451 267 72 5 0 83 0 0
846 893 1035 1015 1150 856 836 1054 1379 1337 1157 1120 1046 1154 1123 1035 1003 990 972 994 970 1101 1042 1273 1173 1344 1422 1308 1299 1425 1188 1395 1426 1271 1341 1293 1074 965 992 804 610 494 533 633 512 542 618 675 730 808 776 658 579 371 259 69 21 0 0 0 0 0
807 856 875 1006 1025 982 850 887 1019 991 1098 1078 1190 993 991 1018 1005 1004 955 927 942 1098 1190 998 1045 1118 1249 1140 1213 1135 1091 1173 1315 1126 1121 956 857 743 753 806 589 398 319 364 313 293 322 437 666 705 623 523 415 230 101 12 0 0 0 0 0 0
766 822 858 892 981 902 837 777 842 1026 1079 1001 793 852 1027 986 972 906 864 928 975 1135 976 970 971 1016 1126 1018 967 958 980 1021 981 885 761 639 622 627 604 630 574 380 218 59 88 100 134 284 641 661 512 384 303 198 20 0 0 0 0 0 0 0
773 831 826 885 798 718 694 755 833 926 883 895 982 945 926 951 869 832 924 971 964 982 951 894 893 904 931 931 950 970 965 921 871 747 654 547 525 544 633 560 443 324 224 68 0 5 14 212 437 686 538 343 190 73 10 0 0 0 0 0 0 0
705 790 595 892 883 756 726 733 852 888 912 828 886 909 890 858 868 926 975 982 974 989 847 780 792 872 956 982 935 907 840 734 675 626 494 376 294 318 331 346 241 121 114 64 0 0 0 83 359 481 456 536 290 82 199 10 50 0 0 0 0 0
581 738 727 657 765 909 935 833 846 959 893 815 867 873 822 839 924 852 839 814 839 823 738 794 848 873 859 823 780 751 745 669 546 457 356 279 232 216 216 228 303 124 0 0 0 0 0 78 234 103 432 289 254 144 51 0 0 0 0 0 0 0
812 832 826 901 939 1018 982 899 961 792 908 854 791 806 821 870 835 768 604 580 770 745 767 764 828 827 805 782 748 683 576 509 431 378 305 237 185 173 101 104 211 249 72 0 0 0 0 0 43 74 69 211 154 243 179 66 1 2 0 0 0 0
930 707 693 612 766 877 902 729 663 773 804 794 783 745 508 644 637 552 466 692 657 767 773 765 731 682 619 569 551 483 456 426 359 314 275 215 55 0 1 1 44 57 89 26 0 0 0 0 0 23 473 80 65 119 238 154 0 2 0 0 0 0
917 784 727 584 553 580 632 681 753 736 645 682 687 685 674 599 534 578 556 537 608 638 648 576 511 458 345 349 369 378 351 305 271 211 36 0 0 0 0 0 0 1 10 2 0 0 0 0 0 0 64 216 98 43 0 0 0 3 0 0 0 0
1032 901 774 607 569 684 697 721 698 666 600 657 632 482 430 536 544 595 503 465 554 492 468 422 409 340 350 306 264 282 287 275 208 0 0 0 0 0 0 0 0 0 0 0 0 0 0 0 0 0 0 0 0 0 0 0 0 0 0 0 0 0
1102 979 766 632 679 739 747 680 628 602 551 550 488 478 480 461 507 492 444 474 439 455 382 348 305 287 281 269 249 259 265 220 22 0 0 0 0 0 0 0 0 0 0 0 0 0 0 0 0 0 0 0 0 0 0 0 0 0 0 0 0 0
1149 1001 813 646 712 771 752 641 609 590 507 507 494 520 493 506 501 490 491 460 376 430 376 306 262 234 213 192 245 276 249 192 0 0 0 0 0 0 0 0 0 0 0 0 0 0 0 0 0 0 0 0 0 0 0 0 0 0 0 0 0 0
1249 1034 799 733 728 756 762 626 548 532 582 516 566 531 559 606 544 481 488 387 379 425 436 363 330 221 190 194 219 220 166 0 0 0 0 0 0 0 0 0 0 0 0 0 0 0 0 0 0 0 0 0 0 0 0 0 0 0 0 0 0 0
1109 849 663 712 664 652 629 577 573 526 497 566 659 581 610 672 558 496 372 343 393 407 397 329 208 167 160 181 187 126 0 0 0 0 0 0 0 0 0 0 0 0 0 0 0 0 0 0 0 0 0 0 0 0 0 0 0 0 0 0 0 0
866 670 578 674 607 593 536 506 604 526 581 651 571 570 664 650 538 430 338 376 422 379 209 128 128 138 140 162 105 0 0 0 0 0 0 0 0 0 0 0 0 0 0 0 0 0 0 0 0 0 0 0 0 0 0 0 0 0 0 0 0 0
640 538 609 533 444 462 563 560 607 538 587 676 573 581 646 602 523 417 372 387 315 234 138 125 93 10 159 116 0 0 0 0 0 0 0 0 0 0 0 0 0 0 0 0 0 0 0 0 0 0 0 0 0 0 0 0 0 0 0 0 0 0
524 565 677 572 280 388 384 466 676 687 605 621 619 620 615 574 562 453 345 320 205 151 151 200 150 159 158 0 0 0 0 0 0 0 0 0 0 0 0 0 0 0 0 0 0 0 0 0 0 0 0 0 0 0 0 0 0 0 0 0 0 0
592 488 594 579 336 258 329 377 516 742 685 621 595 595 631 622 533 429 390 267 157 142 143 109 154 237 0 0 0 0 0 0 0 0 0 0 0 0 0 0 0 0 0 0 0 0 0 0 0 0 0 0 0 0 0 0 0 0 0 0 0 0
562 510 502 572 558 384 455 406 521 674 699 674 651 644 631 541 480 389 258 213 171 180 170 152 274 253 0 0 0 0 0 0 0 0 0 0 0 0 0 0 0 0 0 0 0 0 0 0 0 0 0 0 0 0 0 0 0 0 0 0 0 0
616 627 622 651 570 505 383 459 520 578 582 638 664 596 523 512 479 391 341 298 279 273 184 224 198 63 0 0 0 0 0 0 0 0 0 0 0 0 0 0 0 0 0 0 0 0 0 0 0 0 0 0 0 0 0 0 0 0 0 0 0 0
704 799 669 571 609 516 455 499 506 440 452 555 640 556 488 536 494 429 378 379 335 237 166 148 1 0 0 0 0 0 0 0 0 0 0 0 0 0 0 0 0 0 0 0 0 0 0 0 0 0 0 0 0 0 0 0 0 0 0 0 0 0
Wind_Speed
30 30 28 25 23 24 25 26 26 28 28 28 27 27 26 26 24 22 21 22 19 16 15 13 11 10 10 10 11 12 13 14 13 11 10 9 9 8 8 8 8 7 7 6 6 5 6 6 7 6 7 11 12 11 11 10 10 10 10 10 12 10
29 29 28 25 23 23 23 24 24 26 25 25 25 25 23 21 20 19 22 18 15 15 13 13 11 10 9 10 10 11 12 12 12 12 11 10 10 9 8 8 8 7 7 7 nan 5 7 8 8 8 8 9 9 9 9 9 9 9 9 10 10 10
26 26 27 25 24 22 23 22 24 25 24 24 23 23 21 19 18 18 18 16 14 13 15 15 13 10 11 11 11 11 11 11 11 12 12 11 10 8 7 7 7 8 7 nan 5 8 7 8 8 10 10 7 8 8 7 7 8 8 8 8 8 10
22 24 24 24 24 22 22 21 22 23 22 21 22 20 19 17 16 17 17 15 14 15 15 14 16 16 13 10 11 12 11 11 11 11 10 11 10 9 5 6 7 6 6 8 9 8 8 9 8 8 8 7 7 7 6 6 6 7 7 8 8 10
19 19 21 23 25 22 21 19 20 21 21 21 20 19 17 15 16 17 15 13 13 14 15 16 15 14 13 11 9 9 8 8 8 9 9 10 9 9 7 8 8 8 10 9 10 10 9 10 9 8 8 7 6 6 5 5 6 5 6 7 8 9
16 17 19 23 24 23 21 20 20 21 21 21 19 18 16 15 16 16 13 12 12 14 16 16 16 16 15 14 12 10 9 9 8 9 9 10 10 9 9 9 10 10 10 10 10 11 10 9 8 8 7 7 6 5 4 4 5 6 7 7 9 10
16 16 21 22 24 24 22 22 21 21 22 21 18 17 16 16 16 16 13 11 12 14 16 15 16 16 16 15 14 12 11 10 9 9 10 10 11 10 10 10 10 10 10 10 9 9 9 9 7 6 6 6 5 4 4 4 6 7 8 9 11 12
17 17 22 24 23 23 23 24 23 23 22 21 18 17 17 16 17 15 12 11 12 14 15 15 15 16 17 16 15 14 14 12 10 10 10 10 11 11 10 10 9 9 9 9 8 8 7 7 7 6 6 6 6 6 6 6 7 8 9 11 11 17
18 19 25 24 22 21 20 19 19 21 22 21 19 18 18 17 16 15 12 11 12 13 14 14 15 16 16 16 15 15 14 13 11 11 10 11 10 10 10 9 8 8 9 9 8 7 7 8 8 8 7 7 7 8 8 8 8 9 11 13 13 17
19 22 24 22 20 19 16 14 16 19 21 21 20 20 18 16 16 15 13 12 12 12 12 13 14 14 14 16 16 15 14 14 13 13 12 12 11 10 9 9 8 8 8 8 8 8 6 8 8 9 9 9 9 9 10 10 10 11 12 15 16 17
19 21 20 19 18 17 18 19 21 20 19 19 20 20 19 17 16 15 14 14 13 12 12 12 12 13 15 16 16 16 15 14 15 15 14 15 13 11 10 10 10 9 9 9 9 9 8 9 10 10 11 11 12 11 12 13 13 15 15 17 18 19
18 19 21 20 19 20 21 21 23 21 19 19 19 19 19 18 17 16 15 14 14 13 13 12 12 14 15 16 17 16 15 15 17 17 17 17 15 13 12 12 12 12 12 11 11 11 11 11 12 12 12 14 13 13 14 15 17 18 19 20 21 21
17 18 21 19 20 21 21 20 22 21 18 18 18 19 20 19 19 18 17 15 16 16 15 14 14 14 15 16 16 16 16 17 19 19 19 18 17 15 15 15 16 14 14 13 12 13 12 13 13 14 14 15 14 16 16 18 19 19 21 22 24 24
17 18 21 18 19 20 20 20 20 19 20 19 19 20 22 22 21 20 18 18 18 17 16 16 15 16 16 16 17 17 18 19 20 20 20 19 19 18 18 18 18 17 18 15 14 14 13 14 14 15 16 16 17 18 19 21 23 24 25 26 27 28
16 17 21 19 19 19 19 19 19 19 19 19 22 23 24 23 23 22 20 19 19 18 17 17 18 18 18 18 18 19 19 20 20 21 21 20 20 22 21 21 20 19 18 17 15 15 14 14 15 16 16 17 19 20 23 25 26 27 27 28 29 30
17 18 19 19 18 17 17 18 19 18 19 21 23 23 24 24 25 24 22 21 19 18 18 19 20 20 19 19 19 20 21 21 22 21 21 21 22 23 23 22 22 19 18 17 15 15 14 14 16 17 17 19 21 23 26 28 nan nan nan nan nan nan
20 20 20 21 20 18 17 18 18 18 19 21 22 22 23 24 26 25 23 22 20 18 18 19 21 21 21 21 21 22 22 22 21 22 22 22 23 22 22 22 22 20 18 16 15 14 14 14 15 18 20 23 24 27 29 nan nan nan nan nan nan nan
21 22 22 21 22 21 20 19 19 20 22 22 23 22 22 26 26 26 24 23 21 19 20 21 22 22 22 23 23 22 21 20 21 22 23 23 23 23 22 21 21 20 18 16 15 14 14 14 16 19 23 25 27 29 31 nan nan nan nan nan nan nan
21 23 23 22 23 23 23 22 21 22 23 24 24 23 24 25 25 25 25 24 23 22 23 23 23 23 23 23 22 22 22 20 21 22 23 23 23 24 23 22 21 20 18 nan nan nan 15 15 17 21 25 27 28 31 nan nan nan nan nan nan nan nan
21 23 23 22 22 22 22 20 20 22 23 23 25 27 26 24 23 25 25 25 25 25 26 25 25 24 23 22 21 21 22 21 21 22 23 23 22 22 22 22 21 19 18 nan nan nan nan 17 20 23 27 29 30 nan nan nan nan nan nan nan nan nan
21 22 21 21 20 20 20 20 19 20 22 23 25 25 25 23 23 25 27 27 26 26 27 26 25 24 24 22 20 21 23 22 21 22 22 22 22 21 20 20 19 18 18 nan nan nan nan nan 20 25 26 29 31 nan 34 nan nan nan nan nan nan nan
20 19 20 19 19 19 18 19 19 19 21 21 21 22 23 22 23 26 28 26 26 27 27 26 26 25 24 22 21 22 23 22 21 21 22 22 21 20 18 17 16 18 nan nan nan nan nan nan 24 23 26 28 29 30 nan nan nan nan nan nan nan nan
17 17 17 18 18 19 19 20 21 21 20 20 21 22 22 23 24 27 27 27 28 29 29 28 28 27 25 23 23 24 22 20 20 21 21 20 19 18 17 17 16 15 nan nan nan nan nan nan nan nan nan 28 30 30 32 nan nan nan nan nan nan nan
17 17 18 19 20 21 22 25 27 26 23 20 22 25 25 24 25 28 29 28 29 30 30 31 30 28 25 24 24 24 22 21 21 20 19 18 nan nan nan nan nan nan nan nan nan nan nan nan nan nan 29 nan nan 30 34 35 nan nan nan nan nan nan
17 18 19 21 23 24 25 27 27 27 25 26 28 27 27 26 26 28 30 32 31 30 29 30 29 27 25 25 24 23 22 21 20 18 nan nan nan nan nan nan nan nan nan nan nan nan nan nan nan nan nan 29 nan nan nan nan nan nan nan nan nan nan
18 18 20 23 25 24 24 25 26 25 24 25 28 27 25 26 26 26 30 30 32 30 29 28 26 25 24 24 24 22 21 20 18 nan nan nan nan nan nan nan nan nan nan nan nan nan nan nan nan nan nan nan nan nan nan nan nan nan nan nan nan nan
18 19 22 23 25 24 22 22 23 24 24 25 29 28 28 29 30 25 26 28 29 29 28 26 24 24 24 23 23 22 21 19 nan nan nan nan nan nan nan nan nan nan nan nan nan nan nan nan nan nan nan nan nan nan nan nan nan nan nan nan nan nan
20 22 21 21 22 21 22 22 25 27 25 24 27 29 29 31 30 26 27 27 27 27 26 25 24 24 23 23 23 22 19 18 nan nan nan nan nan nan nan nan nan nan nan nan nan nan nan nan nan nan nan nan nan nan nan nan nan nan nan nan nan nan
23 24 23 22 22 21 22 23 23 26 26 27 29 29 29 28 29 27 30 28 28 27 26 25 25 24 23 24 24 21 18 nan nan nan nan nan nan nan nan nan nan nan nan nan nan nan nan nan nan nan nan nan nan nan nan nan nan nan nan nan nan nan
23 23 22 23 23 22 23 22 21 23 27 28 29 28 27 26 27 29 31 30 27 25 23 24 24 24 24 24 23 20 nan nan nan nan nan nan nan nan nan nan nan nan nan nan nan nan nan nan nan nan nan nan nan nan nan nan nan nan nan nan nan nan
21 21 21 21 22 21 22 22 22 27 28 27 25 25 25 25 26 27 28 27 25 23 22 22 20 21 21 21 21 nan nan nan nan nan nan nan nan nan nan nan nan nan nan nan nan nan nan nan nan nan nan nan nan nan nan nan nan nan nan nan nan nan
21 21 20 19 21 21 22 24 24 27 27 24 23 23 23 24 24 26 26 24 21 22 21 19 nan nan 18 18 nan nan nan nan nan nan nan nan nan nan nan nan nan nan nan nan nan nan nan nan nan nan nan nan nan nan nan nan nan nan nan nan nan nan
22 23 24 25 24 24 23 25 26 24 24 23 22 21 22 24 23 25 25 21 19 20 18 16 16 16 17 nan nan nan nan nan nan nan nan nan nan nan nan nan nan nan nan nan nan nan nan nan nan nan nan nan nan nan nan nan nan nan nan nan nan nan
24 26 26 21 21 22 21 24 25 24 23 22 23 21 20 22 24 25 22 19 18 17 16 16 15 16 nan nan nan nan nan nan nan nan nan nan nan nan nan nan nan nan nan nan nan nan nan nan nan nan nan nan nan nan nan nan nan nan nan nan nan nan
24 25 26 22 20 19 19 22 23 22 23 24 24 22 20 22 24 23 20 19 18 17 16 15 15 15 nan nan nan nan nan nan nan nan nan nan nan nan nan nan nan nan nan nan nan nan nan nan nan nan nan nan nan nan nan nan nan nan nan nan nan nan
24 23 23 25 22 18 18 21 23 21 22 22 21 20 19 19 21 20 18 17 16 16 16 16 16 nan nan nan nan nan nan nan nan nan nan nan nan nan nan nan nan nan nan nan nan nan nan nan nan nan nan nan nan nan nan nan nan nan nan nan nan nan
23 22 22 24 24 21 21 23 21 21 21 16 15 15 14 16 19 19 18 17 17 16 15 15 nan nan nan nan nan nan nan nan nan nan nan nan nan nan nan nan nan nan nan nan nan nan nan nan nan nan nan nan nan nan nan nan nan nan nan nan nan nan
Wind_Direction
312 313 313 311 314 314 313 313 310 308 310 308 305 304 305 304 302 296 293 286 283 286 289 290 290 292 305 313 320 325 327 325 324 317 308 296 284 274 266 263 256 255 258 259 257 283 293 291 292 302 308 311 322 329 322 333 341 343 347 344 348 352
306 310 313 312 312 313 311 314 308 307 308 307 305 305 306 304 300 292 284 284 284 287 290 287 286 286 289 303 311 312 318 321 317 315 309 298 279 271 262 255 248 245 243 240 nan 262 271 291 299 292 295 315 319 306 316 327 339 346 350 352 355 350
303 307 313 313 309 312 312 309 307 306 304 307 305 304 301 300 295 286 280 280 282 284 286 282 281 284 280 282 288 300 304 307 307 302 301 290 279 265 255 247 248 248 242 nan 270 260 263 263 276 300 316 302 277 288 299 314 333 342 352 349 4 338
307 312 313 311 306 308 308 305 303 303 302 302 300 298 297 295 287 280 279 279 280 284 283 280 276 285 279 276 278 281 285 293 298 300 293 306 298 284 267 290 273 262 279 262 260 261 258 261 263 261 259 258 262 266 278 292 311 327 339 343 358 327
307 313 315 309 305 304 302 302 299 297 298 296 295 296 294 287 279 277 276 275 278 281 280 278 278 272 265 268 272 279 292 298 303 306 312 299 295 286 280 267 275 278 263 263 260 259 254 254 256 254 256 259 263 261 269 282 291 305 318 328 331 335
304 314 317 308 304 299 295 293 290 289 290 289 289 292 289 281 275 275 271 272 272 277 278 279 278 272 268 266 265 268 276 289 297 299 307 297 290 285 280 274 273 271 271 271 268 262 256 254 249 251 255 262 267 268 263 279 288 299 302 310 310 329
301 303 316 309 303 297 291 286 282 280 281 281 282 283 282 277 273 273 268 268 269 272 276 277 276 272 269 266 264 260 266 275 284 291 294 296 289 283 279 277 275 275 276 272 268 263 258 256 253 252 263 268 276 284 290 296 298 299 299 303 298 303
291 288 305 307 300 295 290 287 281 277 275 275 274 272 273 273 272 274 269 267 265 270 275 276 272 270 268 266 263 261 267 275 280 282 283 290 292 285 280 277 275 275 273 272 269 266 263 266 269 274 279 287 294 295 294 291 294 293 297 296 293 288
281 288 297 299 296 293 291 289 282 277 272 272 266 262 263 269 272 270 268 263 266 271 272 271 270 268 267 266 266 266 268 272 277 279 283 282 278 278 278 276 275 273 273 271 275 275 275 279 287 289 291 291 289 286 284 286 286 289 289 288 288 284
277 288 291 291 292 287 286 294 295 285 276 270 259 255 260 263 266 265 265 265 263 259 259 263 267 266 266 267 268 270 270 272 276 278 280 276 270 270 269 271 273 272 273 276 277 279 282 283 285 287 287 283 282 280 283 285 284 283 285 287 287 287
283 278 286 289 292 285 279 285 293 288 279 266 256 253 255 256 259 259 260 261 261 261 258 259 262 261 261 262 263 263 263 269 273 276 278 276 273 267 266 264 264 265 268 270 275 280 279 278 277 279 281 279 278 284 285 287 288 284 284 286 288 287
284 271 288 287 286 282 280 282 285 281 275 260 253 251 251 249 250 252 253 255 258 260 261 262 261 256 258 260 261 259 260 263 268 273 273 274 274 272 267 267 268 272 272 273 278 280 283 280 278 277 276 274 278 281 282 285 286 285 287 288 289 289
281 268 281 284 277 279 279 279 277 275 270 257 252 251 250 246 243 243 248 254 258 263 265 265 261 258 256 256 257 259 259 260 263 265 268 269 272 276 273 272 272 273 269 269 268 270 272 277 275 275 275 277 281 279 282 284 284 285 284 285 286 287
283 273 276 277 272 275 276 276 275 272 266 260 253 252 250 247 247 248 250 255 259 261 263 263 263 260 255 257 257 257 257 258 260 263 267 270 272 274 271 267 266 265 263 261 260 261 263 267 270 274 275 278 282 284 287 284 283 285 285 284 286 286
283 280 273 278 279 277 275 273 270 268 264 261 256 253 252 252 254 255 255 256 258 259 260 261 259 257 254 257 257 257 259 261 264 267 268 268 270 272 269 265 261 262 263 263 262 265 266 271 272 273 278 283 285 289 288 288 287 284 283 283 283 282
286 279 276 274 277 275 272 269 264 264 261 260 257 255 256 257 260 260 258 257 260 261 263 264 262 259 257 258 258 259 261 265 268 267 266 266 268 271 270 267 263 262 265 265 267 269 275 276 280 281 285 288 289 291 290 288 nan nan nan nan nan nan
283 282 279 275 271 271 269 265 261 260 260 258 257 257 260 258 260 261 262 262 263 263 265 266 267 262 261 262 261 262 264 266 266 266 265 264 267 271 273 270 267 265 266 269 267 266 273 278 282 286 289 290 290 289 288 nan nan nan nan nan nan nan
277 277 276 273 271 267 262 259 254 256 258 256 256 253 255 259 261 264 266 267 268 265 262 264 268 269 266 265 266 267 267 265 265 265 264 264 266 270 270 271 271 269 267 268 269 269 271 276 283 288 291 290 290 289 289 nan nan nan nan nan nan nan
276 275 273 272 270 266 262 256 254 257 261 259 256 254 257 262 263 263 265 268 268 262 262 265 267 268 269 269 270 270 271 267 268 266 265 266 269 271 271 272 274 277 276 nan nan nan 276 282 287 293 293 290 289 289 nan nan nan nan nan nan nan nan
272 273 273 273 271 269 266 263 259 256 256 256 255 256 257 261 264 265 266 264 261 261 263 264 266 267 269 272 274 271 266 263 262 262 262 264 268 270 271 273 272 272 277 nan nan nan nan 287 292 296 300 296 291 nan nan nan nan nan nan nan nan nan
269 275 279 279 278 275 275 271 264 260 255 257 259 261 263 267 268 269 270 266 262 263 266 265 267 269 269 268 265 263 262 258 256 256 257 260 263 266 267 271 275 272 273 nan nan nan nan nan 294 299 302 304 300 nan 295 nan nan nan nan nan nan nan
272 279 286 288 284 279 275 273 266 260 257 258 261 266 270 272 272 275 274 266 263 264 266 266 265 264 262 262 263 262 260 256 253 255 256 258 258 261 265 271 278 281 nan nan nan nan nan nan 301 297 304 304 303 305 nan nan nan nan nan nan nan nan
284 289 290 288 281 275 269 264 260 258 256 255 256 255 263 270 268 268 261 254 258 260 261 261 259 258 258 258 260 262 259 255 252 254 257 256 255 256 258 263 270 283 nan nan nan nan nan nan nan nan nan 309 305 311 311 nan nan nan nan nan nan nan
294 290 289 283 277 273 271 264 257 254 241 245 261 263 254 252 257 264 256 249 250 256 259 260 259 258 257 257 258 258 256 254 252 250 251 254 nan nan nan nan nan nan nan nan nan nan nan nan nan nan 308 nan nan 309 310 304 nan nan nan nan nan nan
286 287 284 284 280 276 269 263 263 263 259 256 257 254 254 249 243 249 250 247 250 252 256 259 257 255 255 254 253 252 253 253 253 250 nan nan nan nan nan nan nan nan nan nan nan nan nan nan nan nan nan 309 nan nan nan nan nan nan nan nan nan nan
277 284 284 283 282 273 273 278 278 275 267 266 268 265 260 260 252 242 243 246 250 252 255 254 252 251 250 250 250 248 249 251 250 nan nan nan nan nan nan nan nan nan nan nan nan nan nan nan nan nan nan nan nan nan nan nan nan nan nan nan nan nan
280 280 278 280 284 280 283 283 283 281 276 276 274 265 262 258 251 243 245 246 250 252 251 248 245 247 246 247 247 245 244 246 nan nan nan nan nan nan nan nan nan nan nan nan nan nan nan nan nan nan nan nan nan nan nan nan nan nan nan nan nan nan
278 277 272 279 287 285 285 280 278 272 269 271 271 268 265 260 252 248 248 248 249 249 246 241 240 242 242 243 245 245 244 248 nan nan nan nan nan nan nan nan nan nan nan nan nan nan nan nan nan nan nan nan nan nan nan nan nan nan nan nan nan nan
280 278 277 281 282 284 281 280 275 280 271 264 267 265 264 260 256 252 254 251 250 248 243 238 236 237 238 241 245 249 251 nan nan nan nan nan nan nan nan nan nan nan nan nan nan nan nan nan nan nan nan nan nan nan nan nan nan nan nan nan nan nan
278 276 279 283 282 285 279 274 276 275 273 269 268 263 258 254 251 251 255 255 249 244 242 241 235 235 238 241 246 252 nan nan nan nan nan nan nan nan nan nan nan nan nan nan nan nan nan nan nan nan nan nan nan nan nan nan nan nan nan nan nan nan
279 275 279 279 285 291 283 280 289 289 281 277 272 270 263 251 248 250 254 251 245 239 238 238 235 234 237 241 246 nan nan nan nan nan nan nan nan nan nan nan nan nan nan nan nan nan nan nan nan nan nan nan nan nan nan nan nan nan nan nan nan nan
273 274 272 271 269 280 286 292 291 285 284 278 271 270 269 260 249 252 254 252 241 238 234 229 nan nan 239 244 nan nan nan nan nan nan nan nan nan nan nan nan nan nan nan nan nan nan nan nan nan nan nan nan nan nan nan nan nan nan nan nan nan nan
268 269 263 262 287 302 293 296 293 284 280 274 265 270 269 257 249 254 255 252 240 235 233 233 237 245 246 nan nan nan nan nan nan nan nan nan nan nan nan nan nan nan nan nan nan nan nan nan nan nan nan nan nan nan nan nan nan nan nan nan nan nan
265 265 266 278 289 293 288 289 290 284 280 273 270 268 264 254 252 254 250 241 230 230 233 238 245 246 nan nan nan nan nan nan nan nan nan nan nan nan nan nan nan nan nan nan nan nan nan nan nan nan nan nan nan nan nan nan nan nan nan nan nan nan
265 268 275 279 285 297 291 289 280 275 279 273 267 261 251 246 250 246 231 228 228 231 237 240 244 248 nan nan nan nan nan nan nan nan nan nan nan nan nan nan nan nan nan nan nan nan nan nan nan nan nan nan nan nan nan nan nan nan nan nan nan nan
267 272 280 286 287 289 284 277 281 285 271 260 257 251 244 237 232 224 226 235 240 237 237 242 243 nan nan nan nan nan nan nan nan nan nan nan nan nan nan nan nan nan nan nan nan nan nan nan nan nan nan nan nan nan nan nan nan nan nan nan nan nan
267 270 278 284 282 276 276 274 273 274 264 255 254 259 250 242 238 235 243 245 244 242 241 243 nan nan nan nan nan nan nan nan nan nan nan nan nan nan nan nan nan nan nan nan nan nan nan nan nan nan nan nan nan nan nan nan nan nan nan nan nan nan